Regional Weather Roundup
Issued by NWS

Home | Current Version | Previous Version | Graphics & Text | Print | Product List | Glossary On
Versions: 1 2 3 4 5 6 7 8 9 10 11 12 13 14 15 16 17 18 19 20 21 22 23 24 25 26 27 28
000
ASUS45 KBOI 191710
RWRID
WEATHER ROUNDUP FOR IDAHO
NATIONAL WEATHER SERVICE BOISE ID
1100 AM MDT SAT APR 19 2014

NOTE: "FAIR" INDICATES FEW OR NO CLOUDS BELOW 12000 FEET
WITH NO SIGNIFICANT WEATHER AND/OR OBSTRUCTIONS TO VISIBILITY

IDZ012-014-191800-
SOUTHWEST IDAHO


CITY           SKY/WX    TMP DP  RH WIND       PRES   REMARKS
BOISE          SUNNY     59  25  27 SE10      29.96F
CALDWELL       SUNNY     55  28  35 S6        29.98F
MOUNTAIN HOME  SUNNY     59  25  27 E18       29.97F
$$

IDZ016-017-191800-
SOUTHCENTRAL IDAHO


CITY           SKY/WX    TMP DP  RH WIND       PRES   REMARKS
BURLEY         SUNNY     56  29  35 VRB5      30.00S
JEROME         SUNNY     57  26  30 E10       30.01S
TWIN FALLS     SUNNY     59  26  28 NE9       30.00S
$$

IDZ019>023-191800-
SOUTHEAST IDAHO


CITY           SKY/WX    TMP DP  RH WIND       PRES   REMARKS
IDAHO FALLS    SUNNY     53  21  28 S9        30.05S
POCATELLO      SUNNY     55  17  22 E3        30.05S
REXBURG        SUNNY     51  18  27 S5        30.05S
$$

IDZ006-010-011-018-031-032-191800-
CENTRAL IDAHO MOUNTAINS


CITY           SKY/WX    TMP DP  RH WIND       PRES   REMARKS
MCCALL         SUNNY     44  21  40 S5        29.97F
HAILEY         MOSUNNY   52   9  17 E6        30.05S
STANLEY          N/A     34  17  50 N3        30.05F
SALMON         SUNNY     43  18  36 NE3       30.02F
CHALLIS        SUNNY     48  14  25 VRB5      30.02F
$$

IDZ002-004-006-007-026-191800-
NORTHERN IDAHO


CITY           SKY/WX    TMP DP  RH WIND       PRES   REMARKS
LEWISTON       MOSUNNY   51  29  42 E9        29.89F
LOWELL           N/A     48  31  51 N5        29.98F
COEUR D`ALENE  MOSUNNY   46  34  61 NE7       29.91F
MULLAN PASS    SUNNY     34  23  64 VRB3      29.90S
$$



USA.gov is the U.S. government's official web portal to all federal, state and local government web resources and services.